Terminal Aerodrome Forecast
Issued by NWS Paducah, KY

Home | Current Version | Previous Version | Text Only | Print | Product List | Glossary On
Versions: 1 2 3 4 5 6 7 8 9 10 11 12 13 14 15 16 17 18 19 20 21 22 23 24 25 26 27 28
074
FTUS43 KPAH 310520
TAFPAH
TAF
KPAH 310520Z 3106/0106 VRB02KT P6SM FEW060 SCT150
     FM310700 00000KT 4SM BR SCT250
      TEMPO 3108/3112 2SM BR
     FM311300 22005KT P6SM SCT040=

USA.gov is the U.S. government's official web portal to all federal, state and local government web resources and services.